Retour au catalogue

ATLAS 5 CENTAUR DEB

ActifHEO
NORAD 46848·DEBRIS·🇺🇸 United States

Lancé Oct 17, 2018 depuis Cape Canaveral Space Force Station

Loading…

Prochains Passages (prochaines 24 heures)

TLE

FraisSource: Space-Track

Époque: Sep 13, 2026, 14:39 UTC

1 46848U 18079DD  26256.61088814 -.00000150  00000-0  00000-0 0  9999
2 46848  13.3805  43.9347 4425567 292.5757  27.1498  1.79131134 38374

Suivez ATLAS 5 CENTAUR DEB en temps réel avec AllMySat

Download on the App Store